This is the latest recevied weather packets stored in our database for station/object 4S6DRJ-13. If no packets are shown the sender has not sent any weather packets the latest 10 day(s).
| Time | Temp. | Humidity | Pressure | Rain* | Wind** | Luminosity | Snow |
|---|---|---|---|---|---|---|---|
| 1788324207 | 31.11° C | 70% | 1010.8 hPa | 0 mm | 1.34 m/s, 271° | 1105 W/m² | - |
| 1788324146 | 31.11° C | 70% | 1010.8 hPa | 0 mm | 0.89 m/s, 216° | 1101 W/m² | - |
| 1788324085 | 31.11° C | 71% | 1010.7 hPa | 0 mm | 1.34 m/s, 207° | 1113 W/m² | - |
| 1788324024 | 31.11° C | 70% | 1010.8 hPa | 0 mm | 3.13 m/s, 246° | 1113 W/m² | - |
| 1788323964 | 31.11° C | 70% | 1010.5 hPa | 0 mm | 2.24 m/s, 226° | 1111 W/m² | - |
| 1788323902 | 30.56° C | 70% | 1010.7 hPa | 0 mm | 0.89 m/s, 272° | 1105 W/m² | - |
| 1788323841 | 30.56° C | 71% | 1010.7 hPa | 0 mm | 1.79 m/s, 259° | 1102 W/m² | - |
| 1788323781 | 30.56° C | 71% | 1010.8 hPa | 0 mm | 1.79 m/s, 226° | 1102 W/m² | - |
| 1788323719 | 30.56° C | 71% | 1010.6 hPa | 0 mm | 1.79 m/s, 230° | 1101 W/m² | - |
| 1788323658 | 30.56° C | 71% | 1010.6 hPa | 0 mm | 1.79 m/s, 197° | 1103 W/m² | - |
| 1788323597 | 30.56° C | 71% | 1011 hPa | 0 mm | 1.79 m/s, 219° | 1102 W/m² | - |
| 1788323536 | 30.56° C | 71% | 1010.8 hPa | 0 mm | 1.79 m/s, 110° | 1102 W/m² | - |
| 1788323475 | 30.56° C | 70% | 1010.7 hPa | 0 mm | 2.68 m/s, 205° | 1101 W/m² | - |
| 1788323414 | 31.11° C | 70% | 1010.7 hPa | 0 mm | 4.02 m/s, 226° | 440 W/m² | - |
| 1788323353 | 31.11° C | 71% | 1010.8 hPa | 0 mm | 1.79 m/s, 240° | 1105 W/m² | - |
| 1788323292 | 31.11° C | 70% | 1010.8 hPa | 0 mm | 2.24 m/s, 239° | 1104 W/m² | - |
| 1788323231 | 31.11° C | 69% | 1010.7 hPa | 0 mm | 1.34 m/s, 309° | 1101 W/m² | - |
| 1788323170 | 31.11° C | 70% | 1010.8 hPa | 0 mm | 1.34 m/s, 335° | 742 W/m² | - |
| 1788323109 | 31.11° C | 71% | 1010.7 hPa | 0 mm | 2.24 m/s, 280° | 991 W/m² | - |
| 1788323048 | 30.56° C | 73% | 1010.6 hPa | 0 mm | 0.45 m/s, 178° | 957 W/m² | - |
| 1788322987 | 30.56° C | 72% | 1010.8 hPa | 0 mm | 1.34 m/s, 82° | 1100 W/m² | - |
| 1788322926 | 30.56° C | 72% | 1010.7 hPa | 0 mm | 2.68 m/s, 207° | 985 W/m² | - |
| 1788322865 | 30.56° C | 72% | 1010.8 hPa | 0 mm | 0.45 m/s, 188° | 996 W/m² | - |
| 1788322805 | 30.56° C | 72% | 1010.9 hPa | 0 mm | 2.24 m/s, 258° | 1100 W/m² | - |
| 1788322743 | 30.56° C | 72% | 1010.8 hPa | 0 mm | 0.89 m/s, 242° | 1102 W/m² | - |
* Rain latest hour (hover to see other rain measurements)
** Current wind speed in m/s (hover to see current wind gust speed)